GW1938 Weather Reports


time (UTC)temp
F
wind
direction
speed
knots
gust
knots
rain 1hr
in
rain 24hr
in
rain mn
in
humidity
%
barometer
mb
20260906113202 63 196 7.0 12.2 0.00 0.00 0.00 69 1019.8
20260906112700 63 196 6.1 9.6 0.00 0.00 0.00 68 1019.7
20260906112159 63 195 6.1 8.7 0.00 0.00 0.00 67 1019.7
20260906111658 63 195 4.3 7.8 0.00 0.00 0.00 67 1019.6
20260906111157 63 197 6.1 8.7 0.00 0.00 0.00 65 1019.6
20260906110153 63 194 6.1 8.7 0.00 0.00 0.00 65 1019.5
20260906105651 63 185 6.1 9.6 0.00 0.00 0.00 65 1019.5
20260906104644 63 190 7.8 13.0 0.00 0.00 0.00 63 1019.4
20260906104143 63 183 8.7 12.2 0.00 0.00 0.00 64 1019.4
20260906103642 63 190 7.0 10.4 0.00 0.00 0.00 64 1019.3
20260906103141 63 187 8.7 13.9 0.00 0.00 0.00 63 1019.2
20260906102639 63 188 7.0 13.9 0.00 0.00 0.00 62 1019.2
20260906102138 63 194 7.0 12.2 0.00 0.00 0.00 62 1019.2
20260906101637 64 187 8.7 13.0 0.00 0.00 0.00 61 1019.1
20260906101135 64 191 10.4 14.8 0.00 0.00 0.00 61 1019.0
20260906100634 63 184 8.7 13.9 0.00 0.00 0.00 63 1018.9
20260906100133 63 181 6.1 11.3 0.00 0.00 0.00 65 1018.9
20260906095632 63 182 7.8 13.9 0.00 0.00 0.00 64 1018.9
20260906095131 63 185 7.8 16.5 0.00 0.00 0.00 63 1018.9
20260906094630 63 191 7.0 13.0 0.00 0.00 0.00 64 1018.8
20260906094129 63 173 7.8 13.0 0.00 0.00 0.00 64 1018.8
20260906093125 63 178 9.6 15.6 0.00 0.00 0.00 64 1018.4
20260906092623 63 167 9.6 14.8 0.00 0.00 0.00 65 1018.3
20260906092122 63 162 8.7 13.9 0.00 0.00 0.00 64 1018.3
20260906091118 63 158 11.3 16.5 0.00 0.00 0.00 63 1018.1
20260906090616 63 164 9.6 17.4 0.00 0.00 0.00 63 1018.1
20260906090115 63 170 8.7 13.9 0.00 0.00 0.00 63 1018.1
20260906085614 63 163 10.4 19.1 0.00 0.00 0.00 62 1017.9
20260906085113 63 158 10.4 19.1 0.00 0.00 0.00 64 1017.8
20260906084611 63 160 8.7 14.8 0.00 0.00 0.00 64 1017.9
20260906084111 63 160 9.6 15.6 0.00 0.00 0.00 62 1017.7
20260906083106 63 162 9.6 14.8 0.00 0.00 0.00 61 1017.6
20260906082606 63 160 10.4 16.5 0.00 0.00 0.00 60 1017.5
20260906082103 63 153 8.7 16.5 0.00 0.00 0.00 60 1017.5
20260906081600 63 160 7.8 13.0 0.00 0.00 0.00 58 1017.4
20260906081059 64 160 10.4 17.4 0.00 0.00 0.00 57 1017.3
20260906080558 64 157 11.3 18.2 0.00 0.00 0.00 57 1017.3
20260906080057 64 157 10.4 18.2 0.00 0.00 0.00 57 1017.2
20260906075556 64 164 10.4 19.1 0.00 0.00 0.00 56 1017.2
20260906075055 64 161 9.6 15.6 0.00 0.00 0.00 57 1017.2
20260906074553 64 160 8.7 14.8 0.00 0.00 0.00 56 1017.0
20260906074052 64 159 9.6 15.6 0.00 0.00 0.00 55 1016.9
20260906073549 64 158 7.8 14.8 0.00 0.00 0.00 55 1016.8
20260906073048 64 157 10.4 16.5 0.00 0.00 0.00 54 1016.7
20260906072547 64 156 11.3 17.4 0.00 0.00 0.00 53 1016.6
20260906072045 65 156 12.2 20.0 0.00 0.00 0.00 53 1016.4
20260906071040 65 155 11.3 19.1 0.00 0.00 0.00 51 1016.4
20260906070539 65 161 13.0 24.3 0.00 0.00 0.00 50 1016.2
20260906065534 66 165 11.3 17.4 0.00 0.00 0.00 49 1016.0
20260906065032 66 165 11.3 19.1 0.00 0.00 0.00 48 1016.0
20260906064531 66 164 12.2 20.0 0.00 0.00 0.00 47 1016.0
20260906064030 67 169 9.6 16.5 0.00 0.00 0.00 46 1015.8
20260906063528 67 178 11.3 19.1 0.00 0.00 0.00 45 1015.9
20260906063026 67 181 11.3 16.5 0.00 0.00 0.00 45 1015.9
20260906062525 67 172 9.6 15.6 0.00 0.00 0.00 45 1015.9
20260906062023 67 181 13.0 19.1 0.00 0.00 0.00 44 1015.8
20260906061522 67 185 12.2 20.9 0.00 0.00 0.00 45 1015.8
20260906061021 67 172 11.3 18.2 0.00 0.00 0.00 45 1015.8
20260906060520 67 176 13.0 23.5 0.00 0.00 0.00 44 1015.8
20260906060019 67 179 13.9 22.6 0.00 0.00 0.00 44 1015.6
20260906055518 67 175 12.2 17.4 0.00 0.00 0.00 45 1015.6
20260906055017 67 179 13.0 24.3 0.00 0.00 0.00 44 1015.5
20260906054515 67 171 12.2 23.5 0.00 0.00 0.00 44 1015.6
20260906054014 67 185 13.9 23.5 0.00 0.00 0.00 42 1015.5
20260906053513 67 183 17.4 26.9 0.00 0.00 0.00 43 1015.5
20260906053012 68 162 9.6 18.2 0.00 0.00 0.00 43 1015.6
20260906052509 67 172 12.2 21.7 0.00 0.00 0.00 42 1015.6
20260906052008 67 178 13.9 22.6 0.00 0.00 0.00 41 1015.5
20260906051507 67 184 14.8 20.9 0.00 0.00 0.00 38 1015.4
20260906050502 68 176 13.0 20.0 0.00 0.00 0.00 39 1015.3
20260906045458 68 171 10.4 20.0 0.00 0.00 0.00 39 1015.3
20260906044957 68 173 8.7 18.2 0.00 0.00 0.00 38 1015.2
20260906044456 68 180 10.4 23.5 0.00 0.00 0.00 39 1015.2
20260906043955 68 184 13.9 25.2 0.00 0.00 0.00 38 1015.1
20260906043453 69 175 10.4 20.0 0.00 0.00 0.00 37 1015.2
20260906042951 69 198 9.6 16.5 0.00 0.00 0.00 37 1015.3
20260906041903 69 175 11.3 20.0 0.00 0.00 0.00 36 1015.3
20260906041402 68 188 12.2 20.0 0.00 0.00 0.00 34 1015.3
20260906034637 68 194 15.6 26.1 0.00 0.00 0.00 36 1015.0
20260906033631 68 197 14.8 20.0 0.00 0.00 0.00 33 1015.0
20260906033131 68 210 14.8 21.7 0.00 0.00 0.00 32 1015.0
20260906031620 68 199 13.9 23.5 0.00 0.00 0.00 32 1015.0
20260906031119 68 200 13.0 25.2 0.00 0.00 0.00 32 1014.9
20260906030114 68 210 13.0 20.9 0.00 0.00 0.00 32 1014.9
20260906025108 69 214 7.8 21.7 0.00 0.00 0.00 30 1014.7
20260906024605 69 213 11.3 21.7 0.00 0.00 0.00 32 1014.8
20260906024102 69 214 11.3 20.9 0.00 0.00 0.00 31 1014.7
20260906023559 68 225 13.9 22.6 0.00 0.00 0.00 33 1014.8
20260906023058 69 212 12.2 20.9 0.00 0.00 0.00 31 1014.6
20260906022555 69 222 12.2 25.2 0.00 0.00 0.00 31 1014.7
20260906022053 69 216 12.2 26.1 0.00 0.00 0.00 30 1014.7
20260906021552 68 227 13.0 20.9 0.00 0.00 0.00 30 1014.8
20260906021052 69 230 12.2 22.6 0.00 0.00 0.00 30 1014.8
20260906020550 69 231 11.3 20.9 0.00 0.00 0.00 31 1014.8
20260906020049 69 222 12.2 23.5 0.00 0.00 0.00 30 1014.9
20260906015547 69 218 12.2 20.9 0.00 0.00 0.00 31 1014.9
20260906015046 69 225 11.3 23.5 0.00 0.00 0.00 29 1014.7
20260906014545 69 236 11.3 19.1 0.00 0.00 0.00 30 1014.7
20260906014045 69 230 13.0 25.2 0.00 0.00 0.00 30 1014.8
20260906013543 69 228 8.7 17.4 0.00 0.00 0.00 29 1014.7
20260906013042 69 229 11.3 20.0 0.00 0.00 0.00 30 1014.8
20260906012541 69 223 11.3 20.9 0.00 0.00 0.00 30 1014.8
20260906012040 68 231 13.0 20.0 0.00 0.00 0.00 30 1014.8
20260906011034 68 231 10.4 19.1 0.00 0.00 0.00 30 1014.6
20260906010532 68 228 7.8 20.0 0.00 0.00 0.00 35 1014.6
20260906005528 67 262 9.6 16.5 0.00 0.00 0.00 44 1014.5
20260906005026 66 273 9.6 20.0 0.00 0.00 0.00 40 1014.5
20260906004022 66 265 9.6 16.5 0.00 0.00 0.00 44 1014.4
20260906003520 66 260 12.2 20.9 0.00 0.00 0.00 43 1014.5
20260906003020 66 273 10.4 19.1 0.00 0.00 0.00 42 1014.6
20260906002519 65 271 11.3 20.0 0.00 0.00 0.00 42 1014.6
20260906002019 65 265 12.2 21.7 0.00 0.00 0.00 43 1014.5
20260906001517 65 265 12.2 20.9 0.00 0.00 0.00 44 1014.4
20260906000512 65 261 13.0 20.0 0.00 0.00 0.00 41 1014.3
20260906000011 66 258 12.2 20.0 0.00 0.00 0.00 42 1014.2
20260905235509 65 258 13.9 23.5 0.00 0.00 0.00 39 1014.2
20260905235008 65 256 13.9 24.3 0.00 0.00 0.00 40 1014.2
20260905234507 65 254 14.8 21.7 0.00 0.00 0.00 38 1014.1
20260905234006 65 255 13.0 22.6 0.00 0.00 0.00 40 1014.2
20260905233505 65 267 13.0 20.0 0.00 0.00 0.00 42 1014.0
20260905233004 65 260 14.8 22.6 0.00 0.00 0.00 40 1014.1
20260905232000 65 256 14.8 25.2 0.00 0.00 0.00 40 1013.9
20260905231459 65 260 13.9 22.6 0.00 0.00 0.00 42 1013.9
20260905230454 65 254 16.5 24.3 0.00 0.00 0.00 42 1013.8
20260905225923 65 254 15.6 24.3 0.00 0.00 0.00 42 1013.9
20260905225420 65 256 13.0 20.9 0.00 0.00 0.00 42 1013.9
20260905224918 65 253 10.4 20.0 0.00 0.00 0.00 43 1014.0
20260905224417 64 258 15.6 25.2 0.00 0.00 0.00 42 1013.6
20260905223914 65 258 13.0 24.3 0.00 0.00 0.00 43 1013.6
20260905223412 64 256 13.9 22.6 0.00 0.00 0.00 46 1013.8
20260905222911 64 255 15.6 23.5 0.00 0.00 0.00 43 1013.7
20260905222410 64 254 15.6 27.8 0.00 0.00 0.00 41 1013.3
20260905221903 64 253 12.2 23.5 0.00 0.00 0.00 47 1013.5
20260905221400 64 256 13.9 21.7 0.00 0.00 0.00 47 1013.5
20260905220858 64 255 13.0 23.5 0.00 0.00 0.00 50 1013.4
20260905220355 64 259 14.8 25.2 0.00 0.00 0.00 48 1013.3
20260905215853 64 257 12.2 21.7 0.00 0.00 0.00 48 1013.2
20260905214845 64 253 12.2 20.0 0.00 0.00 0.00 51 1013.2
20260905214343 64 250 11.3 22.6 0.00 0.00 0.00 48 1013.2
20260905213840 64 255 13.0 22.6 0.00 0.00 0.00 50 1013.0
20260905213337 64 253 11.3 20.9 0.00 0.00 0.00 49 1012.9
20260905212835 64 256 12.2 21.7 0.00 0.00 0.00 49 1012.9
20260905212331 64 253 13.9 21.7 0.00 0.00 0.00 48 1012.7
20260905211828 64 258 13.9 26.9 0.00 0.00 0.00 47 1012.5
20260905211327 64 260 13.0 24.3 0.00 0.00 0.00 49 1012.3
20260905210823 64 255 13.0 25.2 0.00 0.00 0.00 47 1012.4
20260905210322 64 258 11.3 19.1 0.00 0.00 0.00 44 1012.4
20260905204813 64 249 12.2 18.2 0.00 0.00 0.00 49 1012.4
20260905204311 64 252 13.0 20.0 0.00 0.00 0.00 48 1012.2
20260905203809 63 244 11.3 18.2 0.00 0.00 0.00 45 1012.0
20260905202805 64 250 13.9 21.7 0.00 0.00 0.00 48 1011.6
20260905201257 64 249 14.8 25.2 0.00 0.00 0.00 43 1011.6
20260905200252 65 240 11.3 22.6 0.00 0.00 0.00 43 1011.5
20260905195750 65 240 11.3 21.7 0.00 0.00 0.00 41 1011.3
20260905194745 66 239 12.2 22.6 0.00 0.00 0.00 43 1011.1
20260905194244 66 239 11.3 19.1 0.00 0.00 0.00 42 1010.9
20260905193238 66 244 12.2 20.0 0.00 0.00 0.00 47 1010.5
20260905191226 67 260 13.9 22.6 0.00 0.00 0.00 51 1009.6
20260905190724 67 264 13.0 20.9 0.00 0.00 0.00 49 1009.5
20260905190221 67 277 9.6 16.5 0.00 0.00 0.00 53 1009.6
20260905185215 66 281 7.8 13.9 0.00 0.00 0.00 56 1009.4
20260905184711 66 270 7.0 12.2 0.00 0.00 0.00 59 1009.5
20260905184209 66 265 7.0 11.3 0.00 0.00 0.00 55 1009.7
20260905183204 67 254 10.4 17.4 0.00 0.00 0.00 51 1009.8
20260905182703 67 250 10.4 16.5 0.00 0.00 0.00 52 1009.8
20260905181153 67 240 9.6 15.6 0.00 0.00 0.00 51 1009.9
20260905180148 67 242 7.8 13.9 0.00 0.00 0.00 54 1009.9
20260905175141 68 245 10.4 16.5 0.00 0.00 0.00 52 1009.7
20260905174639 68 245 9.6 15.6 0.00 0.00 0.00 54 1009.6
20260905172627 69 247 11.3 20.0 0.00 0.00 0.00 50 1009.2
20260905172124 69 246 10.4 20.0 0.00 0.00 0.00 50 1009.1
20260905171621 69 244 10.4 17.4 0.00 0.00 0.00 50 1009.0
20260905170616 69 236 10.4 20.0 0.00 0.00 0.00 47 1008.8
20260905170114 69 235 10.4 18.2 0.00 0.00 0.00 47 1008.8
20260905165609 70 233 10.4 19.1 0.00 0.00 0.00 46 1008.7
20260905165105 70 232 11.3 20.0 0.00 0.00 0.00 45 1008.7
20260905164602 70 228 7.8 14.8 0.00 0.00 0.00 46 1008.6
20260905164059 70 232 7.8 14.8 0.00 0.00 0.00 46 1008.6
20260905163558 70 232 8.7 13.9 0.00 0.00 0.00 45 1008.6
20260905163054 69 243 7.0 11.3 0.00 0.00 0.00 50 1008.6
20260905162551 69 254 7.0 9.6 0.00 0.00 0.00 54 1008.5
20260905162050 70 263 6.1 9.6 0.00 0.00 0.00 48 1008.5
20260905161548 70 266 6.1 9.6 0.00 0.00 0.00 50 1008.4
20260905161046 71 265 6.1 10.4 0.00 0.00 0.00 48 1008.4
20260905160545 71 267 6.1 9.6 0.00 0.00 0.00 50 1008.3
20260905155540 72 266 7.8 13.9 0.00 0.00 0.00 44 1008.2
20260905155037 72 268 7.0 11.3 0.00 0.00 0.00 46 1008.2
20260905154534 72 265 7.0 12.2 0.00 0.00 0.00 44 1008.2
20260905154032 73 271 7.0 12.2 0.00 0.00 0.00 43 1008.2
20260905153529 72 268 7.0 11.3 0.00 0.00 0.00 42 1008.2
20260905153027 72 271 6.1 9.6 0.00 0.00 0.00 44 1008.2
20260905152524 72 269 6.1 11.3 0.00 0.00 0.00 43 1008.2
20260905152023 73 273 7.8 13.0 0.00 0.00 0.00 41 1008.2
20260905151017 72 272 7.0 12.2 0.00 0.00 0.00 45 1008.2
20260905150516 72 277 6.1 9.6 0.00 0.00 0.00 45 1008.2
20260905150014 72 279 6.1 7.8 0.00 0.00 0.00 45 1008.2
20260905145512 72 281 6.1 9.6 0.00 0.00 0.00 46 1008.2
20260905145010 72 277 7.0 9.6 0.00 0.00 0.00 49 1008.3
20260905144508 72 291 7.0 11.3 0.00 0.00 0.00 48 1008.3
20260905144006 73 293 9.6 12.2 0.00 0.00 0.00 47 1008.2
20260905143505 73 304 11.3 13.9 0.00 0.00 0.00 44 1008.0
20260905143001 74 306 11.3 13.9 0.00 0.00 0.00 42 1007.9
20260905142459 74 303 11.3 13.9 0.00 0.00 0.00 42 1007.9
20260905141957 74 304 10.4 13.0 0.00 0.00 0.00 39 1007.8
20260905141456 73 307 12.2 14.8 0.00 0.00 0.00 41 1007.8
20260905140449 73 311 13.9 15.6 0.00 0.00 0.00 44 1007.7
20260905135946 73 318 11.3 15.6 0.00 0.00 0.00 44 1007.6
20260905135444 73 321 9.6 14.8 0.00 0.00 0.00 44 1007.5
20260905134942 72 326 8.7 13.0 0.00 0.00 0.00 43 1007.4
20260905133936 72 327 8.7 12.2 0.00 0.00 0.00 48 1007.4
20260905133435 73 329 9.6 15.6 0.00 0.00 0.00 46 1007.4
20260905132934 72 326 10.4 14.8 0.00 0.00 0.00 46 1007.3
20260905132431 72 328 9.6 15.6 0.00 0.00 0.00 47 1007.5
20260905131930 73 328 9.6 13.0 0.00 0.00 0.00 47 1007.6
20260905131429 73 330 10.4 15.6 0.00 0.00 0.00 47 1007.6
20260905125919 73 327 12.2 18.2 0.00 0.00 0.00 48 1007.5
20260905125415 73 328 13.0 19.1 0.00 0.00 0.00 49 1007.4
20260905124912 73 330 14.8 20.9 0.00 0.00 0.00 47 1007.4
20260905124408 73 330 14.8 20.0 0.00 0.00 0.00 48 1007.2
20260905123905 73 329 16.5 21.7 0.00 0.00 0.00 49 1007.2
20260905123403 73 329 17.4 24.3 0.00 0.00 0.00 48 1007.1
20260905122900 73 330 15.6 20.0 0.00 0.00 0.00 50 1007.2
20260905122357 73 331 14.8 19.1 0.00 0.00 0.00 50 1007.1
20260905121856 72 333 14.8 22.6 0.00 0.00 0.00 51 1007.1
20260905120851 72 336 15.6 20.9 0.00 0.00 0.00 51 1007.3
20260905120349 72 337 14.8 21.7 0.00 0.00 0.00 53 1007.4
20260905115315 72 338 16.5 25.2 0.00 0.00 0.00 53 1007.8
20260905114811 71 340 17.4 22.6 0.00 0.00 0.00 54 1008.0
20260905114251 71 343 15.6 22.6 0.00 0.00 0.00 56 1008.0